Location: Unspecified
(0.0000°N, 0.0000°E)
Time: 18:49:08
(UTC+00:00)

Vanguard 1 - Visible Passes

Search period start: 18 April 2019 00:00
Search period end: 28 April 2019 00:00
Orbit: 652 x 3832 km, 34.3° (Epoch: 17 April)

Date Brightness Start Highest point End Pass type
(mag) Time Alt. Az. Time Alt. Az. Time Alt. Az.
18 Apr 13.2 01:30:38 10° NNW 01:41:53 21° NNE 01:49:39 10° ENE visible
18 Apr 11.3 03:55:49 10° NW 04:07:11 52° NNE 04:13:29 10° ESE visible
18 Apr 13.4 18:13:08 10° WSW 18:28:59 54° NNW 18:51:44 10° NE visible
18 Apr 14.0 20:43:04 10° WNW 20:59:53 26° NNW 21:17:02 10° NNE visible
18 Apr 13.8 23:21:47 10° NW 23:34:14 17° N 23:40:01 15° NNE visible
19 Apr 12.9 01:51:50 10° NNW 02:04:23 26° NNE 02:12:25 10° ENE visible
19 Apr 10.7 04:17:10 10° NW 04:28:31 77° NE 04:34:40 10° ESE visible
19 Apr 13.6 18:35:19 10° W 18:51:17 44° NNW 19:13:02 10° NE visible
19 Apr 14.1 21:07:38 10° WNW 21:23:28 22° NNW 21:38:52 10° NNE visible
19 Apr 13.7 23:44:55 10° NNW 23:57:49 19° N 23:58:59 18° N visible
20 Apr 12.5 02:24:59 33° N 02:26:37 34° NNE 02:34:41 10° E visible
20 Apr 10.4 04:38:48 10° WNW 04:49:36 72° SW 04:55:33 10° SE visible
20 Apr 13.8 18:57:58 10° W 19:13:54 36° NNW 19:34:23 10° NE visible
20 Apr 14.0 21:32:24 10° NW 21:47:22 20° N 22:01:13 10° NNE visible
21 Apr 13.6 00:07:11 10° NNW 00:33:45 - ENE 00:17:59 20° N visible
21 Apr 12.0 02:46:37 42° N 02:48:34 45° NNE 02:56:31 10° E visible
21 Apr 10.7 05:00:51 10° WNW 05:10:27 45° SW 05:16:06 10° SSE visible
21 Apr 14.0 19:21:10 10° WNW 19:36:52 29° NNW 19:55:51 10° NNE visible
21 Apr 14.0 21:56:53 10° NW 22:11:24 19° N 22:24:14 10° NE visible
22 Apr 13.6 00:28:54 10° NNW 00:55:13 - ENE 00:37:00 21° NNW visible
22 Apr 11.4 03:08:05 54° N 03:10:13 61° NNE 03:17:59 10° ESE visible
22 Apr 11.2 05:23:27 10° W 05:31:13 28° SW 05:36:17 10° SSE visible
22 Apr 14.1 19:44:56 10° WNW 20:00:13 25° NNW 20:17:38 10° NNE visible
22 Apr 13.8 22:20:37 10° NW 22:35:23 19° N 22:43:24 15° NNE visible
23 Apr 13.4 00:50:20 10° NW 01:16:30 11° E 01:16:52 10° E visible
23 Apr 11.0 03:29:21 63° NW 03:31:36 84° NE 03:39:06 10° SE visible
23 Apr 14.1 20:09:05 10° NW 20:23:56 22° N 20:39:53 10° NNE visible
23 Apr 13.7 22:43:29 10° NNW 22:59:07 22° N 23:02:26 21° NNE visible
24 Apr 13.1 01:11:41 10° NW 01:37:37 16° E 01:39:03 10° E visible
24 Apr 10.9 03:50:27 57° W 03:52:42 70° SW 03:59:56 10° SE visible
24 Apr 13.9 18:01:03 10° W 18:14:31 32° NNW 18:33:37 10° NE visible
24 Apr 14.1 20:33:20 10° NW 20:47:57 20° N 21:02:47 10° NE visible
24 Apr 13.6 23:05:39 10° NNW 23:21:28 25° NNE 23:21:28 25° NNE visible
25 Apr 12.8 01:33:03 10° NW 01:58:35 21° E 02:00:49 10° ESE visible
25 Apr 11.1 04:11:24 42° WSW 04:13:36 48° SW 04:20:29 10° SSE visible
25 Apr 14.0 18:24:08 10° WNW 18:37:30 27° NNW 18:55:16 10° NNE visible
25 Apr 14.0 20:57:13 10° NW 21:12:05 20° N 21:26:23 10° NE visible
25 Apr 13.5 23:27:23 10° NW 23:40:32 28° N 23:40:32 28° N visible
26 Apr 12.5 02:19:24 26° ESE 02:19:24 26° ESE 02:22:13 10° ESE visible
26 Apr 11.5 04:32:12 29° WSW 04:34:24 32° SW 04:40:45 10° SSE visible
26 Apr 14.1 18:47:40 10° WNW 19:00:52 23° NNW 19:17:18 10° NNE visible
26 Apr 13.9 21:20:25 10° NW 21:36:08 21° N 21:46:57 14° NE visible
26 Apr 13.6 23:48:52 10° NW 23:59:36 28° NNW 23:59:36 28° NNW visible
27 Apr 12.2 02:40:05 30° SE 02:40:05 30° SE 02:43:19 10° SE visible
27 Apr 11.9 04:52:53 19° WSW 04:55:15 21° SW 05:00:35 10° S visible
27 Apr 14.2 19:11:30 10° NW 19:24:35 20° N 19:39:56 10° NE visible
27 Apr 13.7 21:42:54 10° NNW 21:59:55 24° NNE 22:06:02 21° NE visible
